Jackson, MI

8:42 AM EST on January 18, 2017 (GMT -0500)
Jackson County-Reynolds

Weather History for KJXN - October, 2012

Change the Weather History Date:

Wednesday, October 10, 2012

  Actual Average Record
Temperature  
Mean Temperature 43 °F 52 °F  
Max Temperature 54 °F 63 °F 83 °F (1949)
Min Temperature 32 °F 42 °F 25 °F (1956)
Degree Days  
Heating Degree Days 22 13  
Month to date heating degree days 146 118  
Since 1 July heating degree days 331 306  
Cooling Degree Days 0 0  
Month to date cooling degree days 0 3  
Year to date cooling degree days 868 589  
Moisture  
Dew Point 36 °F    
Average Humidity 71    
Maximum Humidity 93    
Minimum Humidity 49    
Precipitation  
Precipitation 0.15 in 0.09 in 1.17 in (1954)
Month to date precipitation 0.48 0.96  
Year to date precipitation 20.18 25.36  
Sea Level Pressure  
Sea Level Pressure 29.95 in    
Wind  
Wind Speed 9 mph (West)    
Max Wind Speed 21 mph    
Max Gust Speed 31 mph    
Visibility 10 miles    
Events Rain    
T = Trace of Precipitation, MM = Missing Value Source: NWS Daily Summary

Daily Weather History Graph

Daily Weather History Graph

Search for Another Location

Airport or City:

Trip Planner

Search our weather history database for the weather conditions in past years. The results will help you decide how hot, cold, wet, or windy it might be!

Date:

Astronomy

Oct. 10, 2012 Rise Set
Actual Time 7:45 AM EDT 7:03 PM EDT
Civil Twilight 7:17 AM EDT 7:31 PM EDT
Nautical Twilight 6:44 AM EDT 8:03 PM EDT
Astronomical Twilight 6:12 AM EDT 8:36 PM EDT
Moon 2:15 AM EDT (10/10) 4:10 PM EDT (10/10)
Length of Visible Light 12h 14m
Length of Day
11h 17m
Waning Crescent, 27% of the Moon is Illuminated
Oct 10
Waning Crescent
Oct 15
New
Oct 21
First Quarter
Oct 29
Full
Nov 6
Last Quarter

Hourly Weather History & Observations

Time (EDT) Temp. Windchill Dew Point Humidity Pressure Visibility Wind Dir Wind Speed Gust Speed Precip Events Conditions
12:56 AM 54.0 °F - 37.9 °F 55% 29.80 in 10.0 mi SSW 12.7 mph - N/A   Overcast
1:56 AM 54.0 °F - 39.0 °F 57% 29.81 in 10.0 mi WSW 12.7 mph - N/A   Overcast
2:22 AM 44.6 °F 37.8 °F 39.2 °F 81% 29.84 in 10.0 mi NW 15.0 mph 23.0 mph N/A   Overcast
2:53 AM 42.8 °F 39.3 °F 39.2 °F 87% 29.85 in 7.0 mi WNW 5.8 mph - 0.03 in Rain Rain
2:56 AM 43.0 °F 37.7 °F 39.9 °F 89% 29.86 in 6.0 mi WNW 9.2 mph - 0.03 in Rain Rain
3:56 AM 43.0 °F 38.8 °F 39.9 °F 89% 29.85 in 8.0 mi WNW 6.9 mph - 0.07 in Rain Light Rain
4:56 AM 42.1 °F 40.2 °F 39.9 °F 92% 29.85 in 10.0 mi West 3.5 mph - 0.03 in Rain Light Rain
5:08 AM 42.8 °F 39.3 °F 39.2 °F 87% 29.85 in 10.0 mi West 5.8 mph - 0.00 in   Overcast
5:15 AM 42.8 °F 39.3 °F 39.2 °F 87% 29.85 in 10.0 mi West 5.8 mph - 0.00 in Rain Light Rain
5:30 AM 42.8 °F 38.0 °F 39.2 °F 87% 29.84 in 10.0 mi WNW 8.1 mph - 0.01 in Rain Light Rain
5:56 AM 42.1 °F 40.2 °F 39.9 °F 92% 29.86 in 10.0 mi WNW 3.5 mph - 0.01 in   Overcast
6:45 AM 41.0 °F 37.1 °F 39.2 °F 93% 29.87 in 10.0 mi West 5.8 mph - N/A   Overcast
6:56 AM 41.0 °F 38.0 °F 39.0 °F 93% 29.88 in 10.0 mi West 4.6 mph - N/A   Overcast
7:38 AM 41.0 °F 37.1 °F 39.2 °F 93% 29.88 in 10.0 mi WNW 5.8 mph - N/A   Overcast
7:56 AM 41.0 °F 37.1 °F 39.0 °F 93% 29.89 in 10.0 mi WSW 5.8 mph - N/A   Overcast
8:05 AM 41.0 °F 36.4 °F 39.2 °F 93% 29.88 in 10.0 mi WSW 6.9 mph - N/A   Overcast
8:56 AM 42.1 °F 37.7 °F 39.0 °F 89% 29.92 in 10.0 mi West 6.9 mph - N/A   Overcast
9:56 AM 45.0 °F 38.9 °F 39.9 °F 82% 29.94 in 10.0 mi West 12.7 mph 17.3 mph N/A   Mostly Cloudy
10:38 AM 46.4 °F 41.1 °F 37.4 °F 71% 29.94 in 10.0 mi West 11.5 mph 18.4 mph N/A   Overcast
10:56 AM 46.0 °F 40.2 °F 39.0 °F 76% 29.96 in 10.0 mi West 12.7 mph 20.7 mph N/A   Overcast
11:04 AM 46.4 °F 41.5 °F 39.2 °F 76% 29.94 in 10.0 mi West 10.4 mph 17.3 mph N/A   Overcast
11:56 AM 46.0 °F 41.4 °F 36.0 °F 68% 29.96 in 10.0 mi West 9.2 mph - N/A   Overcast
12:56 PM 46.0 °F 39.3 °F 37.0 °F 71% 29.98 in 10.0 mi West 16.1 mph 19.6 mph 0.00 in Rain Light Rain
1:14 PM 44.6 °F 39.2 °F 37.4 °F 76% 29.97 in 6.0 mi West 10.4 mph 23.0 mph 0.01 in Rain Light Rain
1:27 PM 44.6 °F 38.8 °F 39.2 °F 81% 29.97 in 10.0 mi West 11.5 mph 17.3 mph 0.01 in   Overcast
1:56 PM 43.0 °F 35.7 °F 35.1 °F 74% 29.99 in 10.0 mi West 15.0 mph 31.1 mph 0.01 in   Overcast
2:56 PM 44.1 °F 37.4 °F 32.0 °F 63% 30.01 in 10.0 mi WNW 13.8 mph 24.2 mph N/A   Overcast
3:56 PM 45.0 °F 39.7 °F 28.0 °F 52% 30.04 in 10.0 mi West 10.4 mph 24.2 mph N/A   Overcast
4:56 PM 44.1 °F 38.1 °F 27.0 °F 51% 30.06 in 10.0 mi West 11.5 mph 20.7 mph N/A   Overcast
5:56 PM 43.0 °F 36.4 °F 28.0 °F 56% 30.08 in 10.0 mi WNW 12.7 mph 20.7 mph N/A   Overcast
6:56 PM 42.1 °F 35.7 °F 27.0 °F 55% 30.10 in 10.0 mi West 11.5 mph 16.1 mph N/A   Mostly Cloudy
7:56 PM 42.1 °F 36.6 °F 27.0 °F 55% 30.13 in 10.0 mi West 9.2 mph - N/A   Overcast
8:56 PM 39.0 °F 35.7 °F 27.0 °F 62% 30.15 in 10.0 mi West 4.6 mph - N/A   Partly Cloudy
9:56 PM 36.0 °F - 28.0 °F 73% 30.17 in 10.0 mi Calm Calm - N/A   Clear
10:56 PM 34.0 °F - 28.0 °F 79% 30.18 in 10.0 mi Calm Calm - N/A   Overcast
11:56 PM 33.1 °F - 28.0 °F 82% 30.18 in 10.0 mi Calm Calm - N/A   Mostly Cloudy